Location: Unspecified
(0.0000°N, 0.0000°E)
Time: 07:00:58
(UTC+00:00)

Courier 1B - Pass Details

Date: 24 September 2023
Orbit: 962 x 1208 km, 28.3° (Epoch: 06 December)

Event Time Altitude Azimuth Distance (km) Brightness Sun altitude
Rises 20:16:32 0° 317° (NW) 3,951 11.2 -36.1°
Reaches altitude 10° 20:19:44 10° 327° (NNW) 2,952 10.3 -36.9°
Enters shadow 20:22:21 20° 342° (NNW) 2,245 9.5 -37.6°
Maximum altitude 20:26:00 31° 27° (NNE) 1,747 - -38.5°
Drops below altitude 10° 20:31:56 10° 88° (E) 2,798 - -40.0°
Sets 20:34:52 0° 98° (E) 3,717 - -40.7°
